Location: Marcé
(47.5801°N, 0.3280°W)
Time: 12:31:17
(UTC+01:00)

Tiros 1 - Pass Details

Date: 02 December 2021
Orbit: 630 x 663 km, 48.4° (Epoch: 20 January)

Event Time Altitude Azimuth Distance (km) Brightness Sun altitude
Rises 18:55:04 0° 193° (SSW) 2,909 10.9 -16.8°
Reaches altitude 10° 18:58:16 10° 170° (S) 2,011 9.7 -17.3°
Maximum altitude 19:00:51 15° 136° (SE) 1,715 9.0 -17.7°
Enters shadow 19:00:58 15° 134° (SE) 1,716 9.0 -17.7°
